Weather History for Norman Wells, NT

Change the Weather History Date:

Saturday, October 6, 2012

  Actual Average Record
Temperature  
Mean Temperature 39 °F -  
Max Temperature 46 °F 24 °F 53 °F (2003)
Min Temperature 32 °F 12 °F 12 °F (1996)
Degree Days  
Heating Degree Days 26    
Moisture  
Dew Point 38 °F    
Average Humidity 85    
Maximum Humidity 100    
Minimum Humidity 60    
Precipitation  
Precipitation 0.20 in 0.04 in - ()
Sea Level Pressure  
Sea Level Pressure 29.98 in    
Wind  
Wind Speed 4 mph ()    
Max Wind Speed 15 mph    
Max Gust Speed 24 mph    
Visibility 12.1 miles    
Events Rain    
Averages and records for this station are not official NWS values.
T = Trace of Precipitation, MM = Missing Value Source: Averaged Metar Reports

Daily Weather History Graph

Daily Weather History Graph

Search for Another Location

Airport:

Trip Planner

Search our weather history database for the weather conditions in past years. The results will help you decide how hot, cold, wet, or windy it might be!

Date:

Astronomy

Oct. 06, 2012 Rise Set
Actual Time 8:54 AM MDT 7:34 PM MDT
Civil Twilight 8:04 AM MDT 8:23 PM MDT
Nautical Twilight 7:06 AM MDT 9:21 PM MDT
Astronomical Twilight 6:05 AM MDT 10:22 PM MDT
Moon 9:54 PM MDT (10/6) 4:57 PM MDT (10/6)
Length of Visible Light 12h 18m
Length of Day
10h 39m
Waning Gibbous, 65% of the Moon is Illuminated
Oct 6
Waning Gibbous
Oct 8
Last Quarter
Oct 15
New
Oct 21
First Quarter
Oct 29
Full

Hourly Weather History & Observations

Time (MDT) Temp. Windchill Dew Point Humidity Pressure Visibility Wind Dir Wind Speed Gust Speed Precip Events Conditions
12:00 AM 41 °F - 33 °F 65% 30.08 in 28 mi SSE 6.9 mph - -   Scattered Clouds
12:00 AM 41.0 °F 35.8 °F 33.8 °F 76% 30.08 in 30.0 mi SSE 8.1 mph - N/A   Scattered Clouds
1:00 AM 37.4 °F 34.9 °F 32.0 °F 81% 30.06 in 30.0 mi ESE 3.5 mph - N/A   Mostly Cloudy
2:00 AM 37.4 °F - 32.0 °F 81% 30.04 in 30.0 mi Calm Calm - N/A   Overcast
3:00 AM 42.8 °F - 33.8 °F 70% 30.02 in 30.0 mi South 2.3 mph - N/A   Overcast
4:00 AM 42.8 °F 39.3 °F 33.8 °F 70% 30.01 in 30.0 mi NNE 5.8 mph - N/A   Overcast
5:00 AM 42.8 °F - 37.4 °F 81% 30.00 in 30.0 mi NNE 2.3 mph - N/A   Scattered Clouds
6:00 AM 37 °F - 33 °F 81% 29.98 in 28 mi Calm Calm - -   Partly Cloudy
6:00 AM 37.4 °F - 33.8 °F 87% 29.98 in 30.0 mi North 2.3 mph - N/A   Mostly Cloudy
7:00 AM 39.2 °F - 33.8 °F 81% 29.97 in 30.0 mi Calm Calm - N/A   Overcast
8:00 AM 37.4 °F - 24.8 °F 60% 29.96 in 30.0 mi NE 2.3 mph - N/A   Mostly Cloudy
9:00 AM 37.4 °F - 35.6 °F 93% 29.96 in 30.0 mi Calm Calm - N/A   Mostly Cloudy
10:00 AM 41.0 °F 39.0 °F 37.4 °F 87% 29.95 in 30.0 mi NE 3.5 mph - N/A   Mostly Cloudy
10:17 AM - - - N/A% - 30.0 mi NNE 3.5 mph - N/A Rain Light Rain
11:00 AM 42.8 °F 40.1 °F 39.2 °F 87% 29.95 in 30.0 mi South 4.6 mph - N/A Rain Light Rain
12:00 PM 43 °F - 40 °F 83% 29.93 in 28 mi SSW 5.8 mph - - Rain Light Rain
12:00 PM 42.8 °F 40.1 °F 39.2 °F 87% 29.93 in 30.0 mi SW 4.6 mph - N/A Rain Light Rain
1:00 PM 44.6 °F 43.1 °F 41.0 °F 87% 29.92 in 20.0 mi West 3.5 mph - N/A Rain Light Rain
2:00 PM 44.6 °F 43.1 °F 41.0 °F 87% 29.93 in 20.0 mi WNW 3.5 mph - N/A Rain Light Rain
3:00 PM 44.6 °F - 42.8 °F 93% 29.91 in 15.0 mi Calm Calm - N/A Rain Light Rain
4:00 PM 44.6 °F - 42.8 °F 93% 29.91 in 8.0 mi Calm Calm - N/A Rain Light Rain
5:00 PM 44.6 °F 43.1 °F 42.8 °F 93% 29.92 in 8.0 mi West 3.5 mph - N/A Rain Light Rain
6:00 PM 44 °F - 44 °F 99% 29.93 in 7 mi West 6.9 mph - - Rain Light Rain
6:00 PM 44.6 °F 40.7 °F 44.6 °F 100% 29.93 in 8.0 mi WNW 6.9 mph - N/A Rain Light Rain
7:00 PM 44.6 °F 39.2 °F 44.6 °F 100% 29.94 in 6.0 mi WNW 10.4 mph - N/A Rain Light Rain
8:00 PM 46.4 °F 40.1 °F 44.6 °F 93% 29.97 in 10.0 mi West 15.0 mph - N/A   Overcast
9:00 PM 46.4 °F 40.1 °F 44.6 °F 93% 30.01 in 10.0 mi West 15.0 mph 24.2 mph N/A Rain Light Rain
10:00 PM 44.6 °F 38.8 °F 41.0 °F 87% 30.04 in 15.0 mi West 11.5 mph - N/A Rain Light Rain
10:42 PM - - - N/A% - 15.0 mi WNW 12.7 mph 20.7 mph N/A   Overcast
11:00 PM 42.8 °F 37.0 °F 41.0 °F 93% 30.08 in 15.0 mi WNW 10.4 mph - N/A   Overcast